Location: Dodgeville
(42.9600°N, 90.1300°W)
Time: 03:39:01
(UTC-06:00)

Amateur Radio Satellites - All Passes

Search period start: 11 December 2017 03:09
Search period end: 12 December 2017 03:09
Location: Dodgeville, 42.9600°N, 90.1300°W

Satellite Date Start Highest point End Downlink Frequencies (MHz)
Time Altitude Azimuth
M-CUBED/EXP-1 PRIME 11 Dec 03:09:14 03:13:29 36° 102° (ESE) 03:17:31 437.505
KKS-1 11 Dec 03:12:23 03:15:01 16° 62° (ENE) 03:17:39 437.445
Oscar 19 11 Dec 03:30:14 03:32:27 13° 303° (WNW) 03:34:40 437.125/150
Gurwin Techsat 1B 11 Dec 03:37:48 03:40:48 15° 301° (WNW) 03:43:48 435.225
CUBESAT XI-V 11 Dec 03:38:42 03:43:18 65° 259° (W) 03:47:58 437.345
FALCONSAT 3 11 Dec 03:41:58 03:44:30 18° 195° (SSW) 03:47:03 435.103
BEESAT 11 Dec 03:49:16 03:52:36 19° 267° (W) 03:55:56 436.000
AO-7 11 Dec 03:50:09 03:58:35 83° 108° (ESE) 04:06:59 .
DOVE 4 11 Dec 04:04:36 04:07:57 20° 91° (E) 04:11:09 437.250
STARS 11 Dec 04:06:29 04:09:52 22° 65° (ENE) 04:13:16 437.465
ITUPSAT 1 11 Dec 04:17:28 04:18:21 10° 272° (W) 04:19:15 437.325
YUBILEINY 11 Dec 04:25:13 04:33:41 50° 285° (WNW) 04:42:16 435.215
ITAMSAT 1 11 Dec 04:30:59 04:35:59 49° 290° (WNW) 04:40:56 435.822/435.867
BEESAT 3 11 Dec 04:33:10 04:36:00 19° 42° (NE) 04:38:48 437.485
PCSat 11 Dec 04:34:59 04:40:26 88° 60° (ENE) 04:45:52 145.827
M-CUBED/EXP-1 PRIME 11 Dec 04:43:51 04:47:38 26° 299° (WNW) 04:51:17 437.505
KKS-1 11 Dec 04:46:42 04:51:06 58° 259° (W) 04:55:31 437.445
BEESAT 2 11 Dec 05:03:27 05:05:29 13° 38° (NE) 05:07:29 435.950
LilacSat-2 11 Dec 05:06:51 05:09:14 16° 92° (E) 05:11:36 437.200
XW-2D 11 Dec 05:26:15 05:29:27 24° 95° (E) 05:32:38 145.860 - 145.880
CUTE-I 11 Dec 05:27:41 05:31:54 23° 93° (E) 05:36:04 437.470
STRAND 1 11 Dec 05:37:16 05:41:26 26° 65° (ENE) 05:45:36 437.568
DOVE 4 11 Dec 05:41:31 05:45:51 40° 290° (WNW) 05:49:57 437.250
XW-2B 11 Dec 05:41:41 05:45:16 35° 97° (E) 05:48:48 145.730 - 145.750
STARS 11 Dec 05:41:54 05:45:59 37° 262° (W) 05:50:05 437.465
AO-7 11 Dec 05:44:00 05:50:27 26° 308° (NW) 05:56:54 .
KAITUO 1B 11 Dec 05:45:11 05:48:30 28° 96° (E) 05:51:48 145.475/437.950
FO-29 11 Dec 05:47:12 05:52:15 19° 54° (NE) 05:57:21 435.910
NUDT-PHONESAT 11 Dec 05:48:51 05:52:09 29° 96° (E) 05:55:27 437.300
AO-85 11 Dec 05:53:41 05:56:45 17° 39° (NE) 05:59:55 145.980
XW-2F 11 Dec 05:57:20 06:01:06 52° 100° (E) 06:04:50 145.980 - 146.000
XW-2C 11 Dec 06:08:35 06:12:28 80° 102° (ESE) 06:16:19 145.795 - 145.815
BEESAT 3 11 Dec 06:09:59 06:13:48 50° 241° (WSW) 06:17:33 437.485
PCSat 11 Dec 06:20:40 06:23:01 13° 258° (WSW) 06:25:23 145.827
SEEDS 11 Dec 06:31:05 06:34:18 21° 93° (E) 06:37:30 437.485
BEESAT 2 11 Dec 06:39:45 06:43:48 90° 256° (WSW) 06:47:47 435.950
LilacSat-2 11 Dec 06:40:01 06:43:39 39° 288° (WNW) 06:47:17 437.200
CUTE 1.7 + AOD 2 11 Dec 06:45:18 06:49:30 48° 99° (E) 06:53:38 437.475
HO-68 11 Dec 06:46:37 06:53:35 51° 100° (E) 07:00:29 435.675
CUBEBUG 2 11 Dec 06:51:21 06:55:10 33° 97° (E) 06:59:04 437.445
UWE-3 11 Dec 06:59:51 07:03:19 23° 95° (E) 07:06:49 435.000/436.395/437.385
XW-2D 11 Dec 07:00:23 07:03:32 24° 291° (WNW) 07:06:40 145.860 - 145.880
AAUSAT CUBESAT 2 11 Dec 07:02:36 07:05:39 19° 93° (E) 07:08:40 437.432
NO-84 11 Dec 07:02:58 07:05:13 19° 127° (SE) 07:07:36 435.350 FM
CUTE-I 11 Dec 07:07:03 07:12:09 47° 291° (WNW) 07:17:13 437.470
STRAND 1 11 Dec 07:15:33 07:20:23 41° 262° (W) 07:25:14 437.568
XW-2B 11 Dec 07:16:33 07:19:09 18° 294° (WNW) 07:21:45 145.730 - 145.750
KAITUO 1B 11 Dec 07:19:24 07:22:19 21° 292° (WNW) 07:25:12 145.475/437.950
NUDT-PHONESAT 11 Dec 07:23:02 07:25:48 20° 293° (WNW) 07:28:35 437.300
XW-2A 11 Dec 07:26:22 07:29:31 33° 98° (E) 07:32:39 145.665 - 145.685
FO-29 11 Dec 07:28:25 07:36:04 79° 73° (ENE) 07:43:58 435.910
UNISAT 6 11 Dec 07:31:52 07:32:59 11° 61° (ENE) 07:34:06 437.425
AO-85 11 Dec 07:32:57 07:37:45 89° 57° (ENE) 07:42:53 145.980
XW-2F 11 Dec 07:33:02 07:34:44 13° 296° (WNW) 07:36:27 145.980 - 146.000
ZACube-1 11 Dec 07:33:50 07:37:36 29° 96° (E) 07:41:26 437.345
Oscar 11 11 Dec 08:00:33 08:04:29 32° 96° (E) 08:08:24 .
SEEDS 11 Dec 08:06:11 08:10:04 35° 289° (WNW) 08:13:55 437.485
AO-73 11 Dec 08:09:58 08:14:14 64° 100° (E) 08:18:37 145.935
CUTE 1.7 + AOD 2 11 Dec 08:22:12 08:24:55 17° 296° (WNW) 08:27:37 437.475
CUBEBUG 2 11 Dec 08:28:21 08:31:38 22° 293° (WNW) 08:34:57 437.445
HO-68 11 Dec 08:34:46 08:41:01 34° 299° (WNW) 08:47:15 435.675
UWE-3 11 Dec 08:36:00 08:39:46 32° 290° (WNW) 08:43:38 435.000/436.395/437.385
AAUSAT CUBESAT 2 11 Dec 08:37:21 08:41:12 36° 289° (WNW) 08:45:00 437.432
NO-84 11 Dec 08:39:10 08:42:11 42° 327° (NNW) 08:45:28 435.350 FM
DELFI C3 11 Dec 08:42:05 08:44:45 17° 92° (E) 08:47:23 145.870
XW-2A 11 Dec 08:59:57 09:01:55 15° 294° (WNW) 09:03:52 145.665 - 145.685
TIGRISAT 11 Dec 09:02:34 09:06:54 90° 74° (ENE) 09:11:11 435.000
UNISAT 6 11 Dec 09:04:45 09:09:04 78° 257° (WSW) 09:13:23 437.425
O/OREOS (USA 219) 11 Dec 09:04:50 09:09:25 77° 111° (ESE) 09:14:01 437.305
ZACube-1 11 Dec 09:10:11 09:13:47 26° 292° (WNW) 09:17:27 437.345
AO-85 11 Dec 09:15:37 09:17:36 12° 252° (WSW) 09:19:38 145.980
FO-29 11 Dec 09:16:01 09:21:47 23° 272° (W) 09:27:43 435.910
PRISM 11 Dec 09:20:46 09:24:46 47° 72° (ENE) 09:28:47 437.425
AIST 2D 11 Dec 09:24:22 09:26:22 15° 66° (ENE) 09:28:22 435.315
Oscar 11 11 Dec 09:36:57 09:40:28 24° 293° (WNW) 09:43:58 .
Max Valier Satellite 11 Dec 09:40:29 09:44:10 57° 100° (E) 09:47:50 145.860
QB50P2 11 Dec 09:44:54 09:46:37 12° 62° (ENE) 09:48:20 145.880/145.840
AO-73 11 Dec 09:47:53 09:49:59 13° 297° (WNW) 09:52:06 145.935
DUCHIFAT 1 11 Dec 09:56:58 09:58:13 11° 61° (ENE) 09:59:29 145.980
DELFI C3 11 Dec 10:15:57 10:19:36 36° 289° (WNW) 10:23:13 145.870
EO-88 11 Dec 10:17:48 10:21:28 70° 284° (WNW) 10:25:07 145.990 - 145.960
NO-84 11 Dec 10:18:19 10:20:15 14° 348° (NNW) 10:22:15 435.350 FM
NANOSAT C BR1 11 Dec 10:18:52 10:22:06 22° 66° (ENE) 10:25:19 145.865
EO-79 11 Dec 10:30:54 10:34:38 33° 70° (ENE) 10:38:24 145.935-145.965
O/OREOS (USA 219) 11 Dec 10:46:58 10:49:24 14° 310° (NW) 10:51:50 437.305
POLYITAN 1 11 Dec 10:52:23 10:56:29 56° 73° (ENE) 11:00:36 437.675
BUGSAT 1 11 Dec 10:53:14 10:54:10 11° 61° (ENE) 10:55:06 437.445
AIST 2D 11 Dec 10:56:00 10:59:13 35° 263° (W) 11:02:29 435.315
PRISM 11 Dec 10:57:51 11:00:16 15° 268° (W) 11:02:42 437.425
LO-87 11 Dec 11:00:54 11:04:18 44° 99° (E) 11:07:41 145.935 - 145.965
ESTCUBE 1 11 Dec 11:07:33 11:11:51 40° 98° (E) 11:16:06 437.505/2401.250
Max Valier Satellite 11 Dec 11:16:24 11:17:29 11° 297° (WNW) 11:18:33 145.860
QB50P2 11 Dec 11:17:40 11:21:50 67° 258° (WSW) 11:26:03 145.880/145.840
Oscar 19 11 Dec 11:29:00 11:32:40 20° 62° (ENE) 11:36:22 437.125/150
DUCHIFAT 1 11 Dec 11:29:08 11:33:17 73° 258° (WSW) 11:37:27 145.980
Gurwin Techsat 1B 11 Dec 11:40:20 11:44:03 20° 61° (ENE) 11:47:47 435.225
NANOSAT C BR1 11 Dec 11:53:49 11:57:36 33° 263° (W) 12:01:24 145.865
NO-84 11 Dec 11:56:49 11:58:46 14° 10° (N) 12:00:47 435.350 FM
AO-91 11 Dec 11:58:18 12:02:46 33° 70° (ENE) 12:06:54 145.960
nSIGHT-1 11 Dec 12:03:11 12:05:51 24° 136° (SE) 12:08:32 .
EO-79 11 Dec 12:07:11 12:10:26 22° 266° (W) 12:13:42 145.935-145.965
BUGSAT 1 11 Dec 12:24:53 12:28:57 72° 259° (WSW) 12:32:59 437.445
POLYITAN 1 11 Dec 12:30:44 12:32:36 13° 270° (W) 12:34:28 437.675
ISS 11 Dec 12:30:54 12:33:54 34° 139° (SE) 12:36:57 437.550
SPROUT 11 Dec 12:31:48 12:36:04 79° 103° (ESE) 12:40:18 437.525
LO-87 11 Dec 12:35:49 12:37:18 12° 295° (WNW) 12:38:47 145.935 - 145.965
YUBILEINY 11 Dec 12:38:29 12:44:32 20° 60° (ENE) 12:50:31 435.215
ESTCUBE 1 11 Dec 12:44:55 12:48:23 22° 295° (WNW) 12:51:49 437.505/2401.250
VELOX 1 11 Dec 12:57:51 13:02:18 88° 105° (ESE) 13:06:41 145.980
AO-7 11 Dec 12:59:19 13:06:07 29° 54° (NE) 13:12:56 .
Oscar 19 11 Dec 13:06:33 13:11:33 55° 259° (W) 13:16:38 437.125/150
Gurwin Techsat 1B 11 Dec 13:18:17 13:23:31 61° 259° (WSW) 13:28:48 435.225
50 SAT 11 Dec 13:25:01 13:27:58 34° 99° (E) 13:30:51 437.505
NO-84 11 Dec 13:33:28 13:36:56 33° 30° (NNE) 13:40:37 435.350 FM
AO-91 11 Dec 13:34:46 13:39:10 29° 264° (W) 13:43:16 145.960
nSIGHT-1 11 Dec 13:38:47 13:41:54 45° 333° (NNW) 13:45:02 .
RS-15 11 Dec 13:46:46 13:57:02 33° 104° (ESE) 14:07:14 29.354- 29.394
M-CUBED/EXP-1 PRIME 11 Dec 13:54:44 13:58:50 50° 66° (ENE) 14:03:12 437.505
UKube-1 11 Dec 13:57:47 14:01:59 50° 100° (E) 14:06:10 .
DX 1 11 Dec 14:05:27 14:09:49 81° 285° (WNW) 14:14:09 434.975-435.025
ISS 11 Dec 14:07:18 14:10:23 36° 336° (NNW) 14:13:29 437.550
SPROUT 11 Dec 14:10:21 14:11:18 11° 300° (WNW) 14:12:15 437.525
ITAMSAT 1 11 Dec 14:10:49 14:15:33 37° 68° (ENE) 14:20:19 435.822/435.867
BEESAT 11 Dec 14:11:41 14:12:52 11° 89° (E) 14:14:03 436.000
MOZHAYETS 4 11 Dec 14:21:21 14:24:51 21° 93° (E) 14:28:20
YUBILEINY 11 Dec 14:33:50 14:42:44 87° 83° (E) 14:51:32 435.215
ITUPSAT 1 11 Dec 14:35:31 14:38:58 20° 93° (E) 14:42:25 437.325
VELOX 1 11 Dec 14:37:12 14:38:01 10° 301° (WNW) 14:38:49 145.980
AO-7 11 Dec 14:49:56 14:58:12 71° 254° (WSW) 15:06:33 .
SO-50 11 Dec 14:57:55 14:59:39 12° 108° (ESE) 15:01:24 436.795
50 SAT 11 Dec 14:58:21 14:59:35 12° 295° (WNW) 15:00:49 437.505
DOVE 4 11 Dec 15:09:40 15:14:02 27° 66° (ENE) 15:18:20 437.250
NO-84 11 Dec 15:10:34 15:14:19 43° 226° (SW) 15:18:15 435.350 FM
nSIGHT-1 11 Dec 15:16:20 15:18:42 18° 353° (N) 15:21:03 .
M-CUBED/EXP-1 PRIME 11 Dec 15:30:44 15:33:30 17° 264° (W) 15:36:23 437.505
CUBESAT XI-V 11 Dec 15:34:29 15:38:36 29° 95° (E) 15:42:41 437.345
UKube-1 11 Dec 15:34:55 15:37:36 16° 297° (WNW) 15:40:16 .
ISS 11 Dec 15:45:11 15:47:32 18° 356° (N) 15:49:55 437.550
BEESAT 11 Dec 15:46:26 15:51:13 81° 285° (WNW) 15:55:58 436.000
ITAMSAT 1 11 Dec 15:50:34 15:55:03 29° 264° (W) 15:59:35 435.822/435.867
RS-15 11 Dec 15:56:05 16:08:26 78° 306° (NW) 16:20:43 29.354- 29.394
MOZHAYETS 4 11 Dec 15:57:49 16:02:08 41° 290° (WNW) 16:06:28
XW-2D 11 Dec 16:09:09 16:11:15 14° 65° (ENE) 16:13:22 145.860 - 145.880
ITUPSAT 1 11 Dec 16:12:27 16:17:01 46° 289° (WNW) 16:21:34 437.325
XW-2B 11 Dec 16:24:04 16:26:53 20° 67° (ENE) 16:29:42 145.730 - 145.750
KAITUO 1B 11 Dec 16:26:34 16:28:51 16° 66° (ENE) 16:31:11 145.475/437.950
NUDT-PHONESAT 11 Dec 16:29:20 16:31:36 16° 66° (ENE) 16:33:53 437.300
YUBILEINY 11 Dec 16:32:29 16:38:18 20° 283° (WNW) 16:44:05 435.215
SO-50 11 Dec 16:34:59 16:39:27 76° 305° (NW) 16:44:00 436.795
KKS-1 11 Dec 16:37:04 16:40:40 24° 95° (E) 16:44:15 437.445
XW-2F 11 Dec 16:38:53 16:42:06 27° 70° (ENE) 16:45:21 145.980 - 146.000
DOVE 4 11 Dec 16:46:27 16:51:27 42° 262° (W) 16:56:24 437.250
AO-7 11 Dec 16:48:49 16:52:22 13° 273° (W) 16:55:57 .
CUTE-I 11 Dec 16:50:00 16:55:01 42° 68° (ENE) 17:00:03 437.470
XW-2C 11 Dec 16:50:20 16:53:53 40° 72° (ENE) 16:57:29 145.795 - 145.815
nSIGHT-1 11 Dec 16:53:10 16:55:44 21° 13° (NNE) 16:58:16 .
CUBESAT XI-V 11 Dec 17:11:47 17:15:54 31° 292° (WNW) 17:20:00 437.345
HO-68 11 Dec 17:16:04 17:22:43 42° 64° (ENE) 17:29:21 435.675
LilacSat-2 11 Dec 17:21:57 17:25:44 73° 259° (W) 17:29:34 437.200
ISS 11 Dec 17:22:03 17:24:49 24° 16° (NNE) 17:27:35 437.550
SEEDS 11 Dec 17:23:58 17:26:41 17° 64° (ENE) 17:29:24 437.485
BEESAT 11 Dec 17:27:24 17:28:10 10° 303° (WNW) 17:28:57 436.000
STARS 11 Dec 17:29:57 17:33:56 34° 98° (E) 17:37:54 437.465
O/OREOS (USA 219) 11 Dec 17:35:35 17:38:54 20° 54° (NE) 17:42:11 437.305
CUTE 1.7 + AOD 2 11 Dec 17:38:30 17:42:25 37° 71° (ENE) 17:46:22 437.475
XW-2D 11 Dec 17:41:26 17:45:02 43° 261° (W) 17:48:41 145.860 - 145.880
CUBEBUG 2 11 Dec 17:50:20 17:54:02 30° 70° (ENE) 17:57:41 437.445
AAUSAT CUBESAT 2 11 Dec 17:53:59 17:56:27 15° 64° (ENE) 17:58:56 437.432
XW-2B 11 Dec 17:57:32 18:00:51 29° 264° (W) 18:04:13 145.730 - 145.750
UWE-3 11 Dec 17:58:05 18:01:11 21° 67° (ENE) 18:04:17 435.000/436.395/437.385
KAITUO 1B 11 Dec 17:59:01 18:02:31 37° 262° (W) 18:06:02 145.475/437.950
XW-2A 11 Dec 17:59:20 18:01:02 13° 66° (ENE) 18:02:45 145.665 - 145.685
NUDT-PHONESAT 11 Dec 18:01:43 18:05:08 36° 262° (W) 18:08:35 437.300
RS-15 11 Dec 18:12:32 18:23:15 33° 334° (NNW) 18:33:46 29.354- 29.394
KKS-1 11 Dec 18:13:17 18:17:15 33° 291° (WNW) 18:21:12 437.445
XW-2F 11 Dec 18:13:20 18:16:12 21° 266° (W) 18:19:06 145.980 - 146.000
SO-50 11 Dec 18:18:19 18:20:42 14° 326° (NW) 18:23:05 436.795
XW-2C 11 Dec 18:26:11 18:28:15 14° 269° (W) 18:30:20 145.795 - 145.815
nSIGHT-1 11 Dec 18:29:07 18:32:21 74° 31° (NNE) 18:35:33 .
CUTE-I 11 Dec 18:30:42 18:35:10 27° 266° (W) 18:39:40 437.470
ZACube-1 11 Dec 18:30:45 18:34:06 24° 68° (ENE) 18:37:27 437.345
Oscar 11 11 Dec 18:56:10 18:59:49 28° 68° (ENE) 19:03:30 .
SEEDS 11 Dec 18:57:55 19:01:58 46° 261° (W) 19:06:05 437.485
ISS 11 Dec 18:58:19 19:01:36 79° 216° (SW) 19:04:53 437.550
HO-68 11 Dec 19:03:44 19:10:24 40° 262° (W) 19:17:08 435.675
AO-73 11 Dec 19:06:08 19:10:07 51° 73° (ENE) 19:14:08 145.935
STARS 11 Dec 19:06:38 19:10:05 23° 294° (WNW) 19:13:30 437.465
O/OREOS (USA 219) 11 Dec 19:14:14 19:18:34 47° 252° (WSW) 19:22:51 437.305
CUTE 1.7 + AOD 2 11 Dec 19:15:17 19:18:22 19° 268° (W) 19:21:29 437.475
PCSat 11 Dec 19:17:08 19:22:30 69° 117° (ESE) 19:27:54 145.827
STRAND 1 11 Dec 19:24:39 19:29:43 62° 101° (ESE) 19:34:45 437.568
CUBEBUG 2 11 Dec 19:27:15 19:30:40 23° 265° (W) 19:34:03 437.445
AAUSAT CUBESAT 2 11 Dec 19:27:26 19:31:28 50° 260° (W) 19:35:34 437.432
DELFI C3 11 Dec 19:29:08 19:30:47 12° 63° (ENE) 19:32:26 145.870
XW-2A 11 Dec 19:30:21 19:33:24 34° 262° (W) 19:36:30 145.665 - 145.685
UWE-3 11 Dec 19:33:38 19:37:27 34° 263° (W) 19:41:15 435.000/436.395/437.385
BEESAT 3 11 Dec 20:00:33 20:03:26 19° 112° (ESE) 20:06:20 437.485
nSIGHT-1 11 Dec 20:06:26 20:08:10 14° 228° (SW) 20:09:53 .
ZACube-1 11 Dec 20:06:41 20:10:16 28° 264° (W) 20:13:53 437.345
Max Valier Satellite 11 Dec 20:20:05 20:23:12 28° 70° (ENE) 20:26:22 145.860
FO-29 11 Dec 20:23:20 20:30:28 67° 100° (E) 20:36:43 435.910
RS-15 11 Dec 20:31:09 20:40:50 26° 9° (N) 20:50:10 29.354- 29.394
Oscar 11 11 Dec 20:32:13 20:35:53 27° 265° (W) 20:39:35 .
BEESAT 2 11 Dec 20:33:39 20:35:12 12° 109° (ESE) 20:36:46 435.950
AO-73 11 Dec 20:44:40 20:46:40 13° 270° (W) 20:48:41 145.935
TIGRISAT 11 Dec 20:53:50 20:56:40 17° 92° (E) 20:59:30 435.000
EO-88 11 Dec 20:55:38 20:59:09 52° 75° (ENE) 21:02:44 145.990 - 145.960
UNISAT 6 11 Dec 20:55:54 20:59:03 19° 93° (E) 21:02:14 437.425
DELFI C3 11 Dec 21:01:04 21:05:00 60° 260° (W) 21:08:58 145.870
PCSat 11 Dec 21:02:13 21:06:25 22° 317° (NW) 21:10:37 145.827
STRAND 1 11 Dec 21:05:02 21:08:24 18° 299° (WNW) 21:11:45 437.568
BEESAT 3 11 Dec 21:36:54 21:40:41 40° 309° (NW) 21:44:29 437.485
LO-87 11 Dec 21:37:55 21:40:37 21° 68° (ENE) 21:43:18 145.935 - 145.965
AO-85 11 Dec 21:49:42 21:52:34 20° 112° (ESE) 21:55:32 145.980
Max Valier Satellite 11 Dec 21:54:22 21:57:02 19° 266° (W) 21:59:43 145.860
ESTCUBE 1 11 Dec 22:07:37 22:11:50 40° 70° (ENE) 22:16:05 437.505/2401.250
BEESAT 2 11 Dec 22:08:22 22:12:22 66° 306° (NW) 22:16:24 435.950
FO-29 11 Dec 22:09:13 22:14:47 25° 302° (WNW) 22:19:54 435.910
AIST 2D 11 Dec 22:20:30 22:22:37 15° 92° (E) 22:24:43 435.315
TIGRISAT 11 Dec 22:29:27 22:33:33 45° 288° (WNW) 22:37:43 435.000
UNISAT 6 11 Dec 22:31:53 22:35:54 39° 289° (WNW) 22:39:58 437.425
EO-88 11 Dec 22:32:36 22:33:07 10° 270° (W) 22:33:37 145.990 - 145.960
PRISM 11 Dec 22:35:55 22:40:03 69° 103° (ESE) 22:44:06 437.425
RS-15 11 Dec 22:45:36 22:57:09 50° 42° (NE) 23:08:02 29.354- 29.394
QB50P2 11 Dec 23:02:17 23:05:12 18° 93° (E) 23:08:08 145.880/145.840
LO-87 11 Dec 23:10:56 23:13:53 24° 264° (W) 23:16:50 145.935 - 145.965
DUCHIFAT 1 11 Dec 23:13:03 23:15:40 16° 92° (E) 23:18:17 145.980
SPROUT 11 Dec 23:25:23 23:29:35 65° 74° (ENE) 23:33:49 437.525
SO-50 11 Dec 23:25:32 23:28:57 20° 40° (NE) 23:32:24 436.795
AO-85 11 Dec 23:28:58 23:32:39 38° 311° (NW) 23:36:33 145.980
DX 1 11 Dec 23:29:07 23:30:11 11° 59° (ENE) 23:31:13 434.975-435.025
NANOSAT C BR1 11 Dec 23:36:38 23:40:28 33° 97° (E) 23:44:16 145.865
ESTCUBE 1 11 Dec 23:45:26 23:48:47 20° 267° (W) 23:52:09 437.505/2401.250
EO-79 11 Dec 23:49:31 23:53:39 53° 100° (E) 23:57:46 145.935-145.965
BEESAT 2 11 Dec 23:49:47 23:50:52 11° 325° (NW) 23:51:57 435.950
FALCONSAT 3 11 Dec 23:50:58 23:53:25 17° 164° (SSE) 23:55:52 435.103
AIST 2D 11 Dec 23:52:39 23:55:53 33° 288° (WNW) 23:59:06 435.315
50 SAT 11 Dec 23:53:09 23:54:39 13° 66° (ENE) 23:56:10 437.505
VELOX 1 11 Dec 23:55:20 23:59:48 85° 73° (ENE) 00:04:17 145.980
BUGSAT 1 12 Dec 00:06:48 00:09:00 14° 92° (E) 00:11:12 437.445
POLYITAN 1 12 Dec 00:11:32 00:15:47 86° 281° (W) 00:20:00 437.675
PRISM 12 Dec 00:13:18 00:14:43 12° 299° (WNW) 00:16:08 437.425
QB50P2 12 Dec 00:37:12 00:41:09 40° 289° (WNW) 00:45:05 145.880/145.840
DUCHIFAT 1 12 Dec 00:47:34 00:51:33 44° 288° (WNW) 00:55:31 145.980
UKube-1 12 Dec 00:52:39 00:56:47 48° 71° (ENE) 01:00:58 .
RS-15 12 Dec 00:58:31 01:09:52 58° 247° (WSW) 01:20:37 29.354- 29.394
DX 1 12 Dec 01:01:16 01:05:39 85° 254° (WSW) 01:10:05 434.975-435.025
SPROUT 12 Dec 01:04:33 01:05:53 11° 271° (W) 01:07:13 437.525
SO-50 12 Dec 01:05:13 01:09:52 69° 239° (WSW) 01:14:34 436.795
NANOSAT C BR1 12 Dec 01:12:44 01:15:58 22° 294° (WNW) 01:19:12 145.865
Oscar 19 12 Dec 01:16:59 01:22:02 48° 100° (E) 01:27:03 437.125/150
BEESAT 12 Dec 01:18:05 01:20:56 16° 61° (ENE) 01:23:45 436.000
50 SAT 12 Dec 01:23:25 01:26:18 32° 262° (W) 01:29:14 437.505
AO-91 12 Dec 01:23:43 01:27:11 48° 99° (E) 01:30:28 145.960
MOZHAYETS 4 12 Dec 01:24:08 01:27:40 23° 66° (ENE) 01:31:13
EO-79 12 Dec 01:26:36 01:28:57 15° 297° (WNW) 01:31:18 145.935-145.965
FALCONSAT 3 12 Dec 01:28:51 01:31:55 25° 179° (S) 01:34:59 435.103
Gurwin Techsat 1B 12 Dec 01:33:29 01:38:40 50° 100° (E) 01:43:48 435.225
BUGSAT 1 12 Dec 01:40:44 01:44:36 46° 288° (WNW) 01:48:29 437.445
YUBILEINY 12 Dec 01:42:24 01:48:20 21° 77° (ENE) 01:54:16 435.215
ITUPSAT 1 12 Dec 01:42:55 01:46:51 26° 66° (ENE) 01:50:46 437.325
PCSat 12 Dec 02:22:12 02:25:02 14° 36° (NE) 02:27:53 145.827
ITAMSAT 1 12 Dec 02:25:09 02:26:31 11° 88° (E) 02:27:53 435.822/435.867
UKube-1 12 Dec 02:30:22 02:33:04 16° 268° (W) 02:35:45 .
CUBESAT XI-V 12 Dec 02:38:25 02:42:31 32° 68° (ENE) 02:46:40 437.345
AO-7 12 Dec 02:50:43 02:58:22 38° 98° (E) 03:05:58 .
BEESAT 12 Dec 02:53:28 02:58:10 64° 258° (WSW) 03:02:54 436.000
Oscar 19 12 Dec 02:56:59 03:01:02 23° 297° (WNW) 03:05:03 437.125/150
MOZHAYETS 4 12 Dec 03:00:22 03:04:35 38° 263° (W) 03:08:51
AO-91 12 Dec 03:02:32 03:03:10 10° 298° (WNW) 03:03:47 145.960
